#timestamp,LO_Frequency,Hit,StdDev 
1550905215.1,286046998.9,P
1550905216.0,286046998.9,P
1550905235.8,286047000.9,Y
1550905255.7,286047002.2,P
1550905275.5,286047002.2,N
1550905295.3,286046998.3,N
1550905315.2,286046998.6,N
1550905335.0,286047000.8,N
1550905335.9,286047000.8,N
1550905355.8,286046999.9,N
1550905375.6,286046998.6,N
1550905395.4,286047001.0,N
1550905415.3,286046999.8,N
1550905435.1,286047000.7,N
1550905455.8,286047000.7,N
1550905475.7,286047002.8,N
1550905495.5,286047002.3,N
1550905515.4,286047002.7,N
1550905535.2,286046998.1,N
1550905555.0,286046996.6,N
1550905555.9,286046996.6,N
1550905575.8,286046996.9,N
1550905595.6,286046999.1,N
1550905615.5,286046999.4,N
1550905635.3,286046997.2,N
1550905655.1,286046996.6,N
1550905675.9,286046999.1,N
1550905695.7,286046999.1,N
1550905715.6,286046997.6,N
1550905735.4,286046995.8,N
1550905755.2,286046995.4,N
1550905775.1,286046997.7,N
1550905776.0,286046997.7,N
1550905795.8,286046997.5,N
1550905815.7,286046995.7,N
1550905835.5,286046995.2,N
1550905855.3,286046998.0,N
1550905875.2,286046993.4,Y
1550905895.0,286046998.0,P
1550905895.9,286046998.0,P
1550905915.8,286046993.3,P
1550905935.6,286046996.3,N
1550905955.4,286046996.4,N
1550905975.3,286046996.0,N
1550905995.1,286046993.9,Y
1550906015.9,286046999.6,P
1550906035.7,286046999.2,N
1550906055.5,286046998.9,N
1550906075.4,286046996.5,Y
1550906095.2,286046998.8,P
1550906115.1,286046999.5,P
1550906116.0,286046999.5,N
1550906135.8,286046998.7,Y
1550906155.6,286047000.6,P
1550906175.5,286047000.7,N
1550906195.3,286047002.8,P
1550906215.2,286047002.4,N
1550906235.9,286047002.8,N
1550906255.7,286047002.8,N
1550906275.6,286047002.5,N
1550906295.4,286046999.7,N
1550906315.3,286047002.2,N
1550906335.1,286047002.0,N
1550906336.0,286047002.0,N
1550906355.8,286047001.3,N
1550906375.7,286047001.5,N
1550906395.5,286047001.4,N
1550906415.3,286047001.9,N
1550906435.2,286047000.4,N
1550906455.0,286047002.8,N
1550906455.9,286047002.8,N
1550906475.8,286047001.8,N
1550906495.6,286047002.1,N
1550906515.4,286047001.7,N
1550906535.3,286047004.0,Y
1550906555.1,286047000.8,P
1550906575.9,286046998.9,N
1550906595.7,286046999.3,N
1550906615.5,286047001.2,N
1550906635.4,286046999.3,N
1550906655.2,286046999.4,N
1550906675.0,286046996.5,Y
1550906675.9,286046996.5,P
1550906695.8,286046997.7,N
1550906715.6,286046997.3,N
1550906735.5,286046996.7,N
1550906755.3,286046999.0,N
1550906775.1,286046995.0,Y
1550906795.9,286046999.1,P
1550906815.7,286046996.9,P
1550906835.5,286046999.2,N
1550906855.4,286046999.0,N
1550906875.2,286046999.1,N
1550906895.1,286046999.2,N
1550906896.0,286046999.2,N
1550906915.8,286046997.8,N
1550906935.6,286046998.7,N
1550906955.5,286046998.6,N
1550906975.3,286047000.7,N
1550906995.1,286047000.0,N
1550907015.9,286046999.9,N
1550907035.7,286047002.1,N
1550907055.6,286047001.3,N
1550907075.4,286047002.6,N
1550907095.2,286047000.8,N
1550907115.1,286047001.0,N
1550907116.0,286047001.0,N
1550907135.8,286047000.4,N
1550907155.7,286047000.1,N
1550907175.5,286046999.9,N
1550907195.3,286046999.8,N
1550907215.2,286047000.6,N
1550907235.9,286047000.5,N
1550907255.7,286046999.8,N
1550907275.6,286047002.5,N
1550907295.4,286047002.0,N
1550907315.3,286047001.9,N
1550907335.1,286047002.5,N
1550907336.0,286047002.5,N
1550907355.8,286047000.1,N
1550907375.7,286047002.0,N
1550907395.5,286047003.9,N
1550907415.3,286047003.7,N
1550907435.2,286047005.8,Y
1550907455.0,286047003.5,P
1550907455.9,286047003.5,N
1550907475.8,286047003.2,N
1550907495.6,286047003.0,N
1550907515.4,286047002.9,N
1550907535.3,286047002.9,Y
1550907555.1,286046998.7,P
1550907575.9,286047001.0,N
1550907595.7,286046999.5,N
1550907615.5,286046999.2,N
1550907635.4,286046999.3,N
1550907655.2,286046998.2,N
1550907675.0,286047000.6,N
1550907675.9,286047000.6,N
1550907695.8,286047001.1,N
1550907715.6,286047000.0,N
1550907735.5,286047000.5,N
1550907755.3,286047002.4,N
1550907775.1,286047002.5,N
1550907795.9,286047002.7,N
1550907815.7,286047002.5,N
1550907835.5,286047000.2,N
1550907855.4,286047000.0,N
1550907875.2,286047002.4,N
1550907895.1,286047002.1,N
1550907896.0,286047002.1,N
1550907915.8,286047002.4,N
1550907935.6,286046999.7,N
1550907955.5,286046999.8,N
1550907975.3,286046998.5,N
1550907995.1,286046999.1,N
1550908015.9,286046999.3,N
1550908035.7,286046999.5,N
1550908055.6,286046996.5,N
1550908075.4,286046999.3,N
1550908095.2,286046999.5,N
1550908115.1,286047000.6,N
1550908116.0,286047000.6,N
1550908135.8,286046999.7,N
1550908155.6,286047001.6,N
1550908175.5,286047000.1,N
1550908195.3,286047002.4,N
1550908215.2,286047002.5,N
1550908235.9,286047004.3,N
1550908255.7,286047003.6,N
1550908275.6,286047003.9,N
1550908295.4,286047004.2,N
1550908315.2,286047003.2,N
1550908335.1,286047001.8,N
1550908336.0,286047001.8,N
1550908355.8,286047004.2,N
1550908375.7,286047003.8,N
1550908395.5,286047004.0,N
1550908415.3,286047003.7,N
1550908435.2,286047003.3,N
1550908455.0,286047005.8,N
1550908455.9,286047005.8,N
1550908475.8,286047004.2,N
1550908495.6,286047004.0,N
1550908515.4,286047001.7,N
1550908535.3,286047001.8,N
1550908555.1,286047001.3,N
1550908575.8,286047001.5,N
1550908595.7,286047003.8,N
1550908615.5,286047003.1,N
1550908635.4,286047003.7,N
1550908655.2,286047003.8,N
1550908675.0,286047003.6,N
1550908675.9,286047003.6,N
1550908695.8,286047005.7,Y
1550908745.6,286047001.0,E
1550908755.6,286046998.3,N
1550908775.4,286046998.6,P
1550908795.2,286047002.8,P
